Weather History for Maple Lake, MN

Change the Weather History Date:

Friday, October 5, 2012

  Actual Average (KSTC) Record (KSTC)
Temperature  
Mean Temperature 38 °F 50 °F  
Max Temperature 43 °F 62 °F 89 °F (1947)
Min Temperature 32 °F 39 °F 20 °F (1952)
Degree Days  
Heating Degree Days 28 15  
Month to date heating degree days 71  
Since 1 July heating degree days 357  
Cooling Degree Days 0 0  
Month to date cooling degree days 0  
Year to date cooling degree days 463  
Moisture  
Dew Point 28 °F    
Average Humidity 67    
Maximum Humidity 83    
Minimum Humidity 53    
Precipitation  
Precipitation 0.00 in 0.10 in 1.08 in (1893)
Month to date precipitation 0.50  
Year to date precipitation 23.54  
Snow  
Snow 0.00 in 0.00 in T in (1952)
Month to date snowfall 0.0  
Since 1 July snowfall T  
Since 1 September snowfall T  
Snow Depth -    
Sea Level Pressure  
Sea Level Pressure 30.15 in    
Wind  
Wind Speed 15 mph (WNW)    
Max Wind Speed 23 mph    
Max Gust Speed 32 mph    
Visibility 10 miles    
Events      
T = Trace of Precipitation, MM = Missing Value Source: NWS Daily Summary

Daily Weather History Graph

Daily Weather History Graph

Search for Another Location

Airport:

Trip Planner

Search our weather history database for the weather conditions in past years. The results will help you decide how hot, cold, wet, or windy it might be!

Date:

Astronomy

Oct. 05, 2012 Rise Set
Actual Time 7:19 AM CDT 6:47 PM CDT
Civil Twilight 6:50 AM CDT 7:17 PM CDT
Nautical Twilight 6:16 AM CDT 7:51 PM CDT
Astronomical Twilight 5:41 AM CDT 8:25 PM CDT
Moon 9:58 PM CDT (10/5) 12:41 PM CDT (10/5)
Length of Visible Light 12h 26m
Length of Day
11h 28m
Waning Gibbous, 74% of the Moon is Illuminated
Oct 5
Waning Gibbous
Oct 8
Last Quarter
Oct 15
New
Oct 21
First Quarter
Oct 29
Full

Hourly Weather History & Observations

Time (CDT) Temp. Windchill Dew Point Humidity Pressure Visibility Wind Dir Wind Speed Gust Speed Precip Events Conditions
12:14 AM 41.0 °F 33.5 °F 30.4 °F 66% 30.15 in 10.0 mi West 13.8 mph 24.2 mph N/A   Overcast
12:34 AM 40.6 °F 32.0 °F 30.2 °F 66% 30.15 in 10.0 mi West 17.3 mph 24.2 mph N/A   Overcast
12:54 AM 40.5 °F 30.7 °F 29.5 °F 65% 30.15 in 10.0 mi West 21.9 mph 28.8 mph N/A   Overcast
1:14 AM 40.3 °F 30.7 °F 28.2 °F 62% 30.15 in 10.0 mi West 20.7 mph 29.9 mph N/A   Overcast
1:34 AM 40.3 °F 31.6 °F 28.4 °F 63% 30.15 in 10.0 mi West 17.3 mph 25.3 mph N/A   Overcast
1:54 AM 40.1 °F 31.0 °F 29.1 °F 65% 30.16 in 10.0 mi WNW 18.4 mph 28.8 mph N/A   Overcast
2:14 AM 39.7 °F 31.2 °F 28.9 °F 65% 30.16 in 10.0 mi WNW 16.1 mph 26.5 mph N/A   Overcast
2:34 AM 38.8 °F 30.4 °F 28.2 °F 66% 30.15 in 10.0 mi West 15.0 mph 21.9 mph N/A   Scattered Clouds
3:14 AM 37.4 °F 28.5 °F 27.5 °F 67% 30.14 in 10.0 mi West 15.0 mph 20.7 mph N/A   Clear
3:34 AM 36.5 °F 28.2 °F 27.5 °F 70% 30.14 in 10.0 mi West 12.7 mph 17.3 mph N/A   Clear
3:54 AM 35.8 °F 30.1 °F 27.9 °F 73% 30.14 in 10.0 mi West 6.9 mph - N/A   Clear
4:13 AM 35.4 °F 28.4 °F 28.0 °F 75% 30.15 in 10.0 mi West 9.2 mph - N/A   Clear
4:34 AM 35.6 °F 28.6 °F 28.0 °F 74% 30.14 in 10.0 mi West 9.2 mph - N/A   Clear
4:54 AM 35.4 °F 27.8 °F 28.2 °F 75% 30.14 in 10.0 mi West 10.4 mph - N/A   Clear
5:14 AM 34.7 °F 28.1 °F 28.4 °F 78% 30.14 in 10.0 mi West 8.1 mph 16.1 mph N/A   Clear
5:34 AM 34.0 °F 27.2 °F 28.4 °F 80% 30.14 in 10.0 mi West 8.1 mph - N/A   Clear
5:54 AM 33.8 °F 25.8 °F 28.2 °F 80% 30.14 in 10.0 mi West 10.4 mph 17.3 mph N/A   Clear
6:14 AM 33.3 °F 23.7 °F 28.2 °F 82% 30.13 in 10.0 mi West 13.8 mph 20.7 mph N/A   Clear
6:34 AM 32.9 °F 22.8 °F 27.7 °F 81% 30.13 in 10.0 mi West 15.0 mph 20.7 mph N/A   Clear
6:54 AM 32.4 °F 24.0 °F 27.5 °F 82% 30.13 in 10.0 mi West 10.4 mph 21.9 mph N/A   Clear
7:14 AM 32.2 °F 23.8 °F 27.5 °F 83% 30.13 in 10.0 mi West 10.4 mph 18.4 mph N/A   Clear
7:34 AM 32.0 °F 23.6 °F 27.5 °F 83% 30.14 in 10.0 mi West 10.4 mph 20.7 mph N/A   Clear
7:54 AM 32.0 °F 24.2 °F 27.5 °F 83% 30.14 in 10.0 mi West 9.2 mph 18.4 mph N/A   Clear
8:14 AM 32.5 °F 23.2 °F 27.5 °F 82% 30.14 in 10.0 mi West 12.7 mph 20.7 mph N/A   Clear
8:34 AM 33.1 °F 23.4 °F 27.7 °F 81% 30.14 in 10.0 mi West 13.8 mph 19.6 mph N/A   Clear
8:54 AM 33.8 °F 24.8 °F 27.7 °F 78% 30.15 in 10.0 mi West 12.7 mph 20.7 mph N/A   Clear
9:34 AM 34.9 °F 25.3 °F 27.7 °F 75% 30.16 in 10.0 mi West 15.0 mph 21.9 mph N/A   Scattered Clouds
10:14 AM 36.5 °F 27.8 °F 28.0 °F 71% 30.16 in 10.0 mi West 13.8 mph 20.7 mph N/A   Scattered Clouds
10:34 AM 37.8 °F 29.0 °F 28.2 °F 68% 30.16 in 10.0 mi West 15.0 mph 24.2 mph N/A   Scattered Clouds
10:54 AM 38.7 °F 29.5 °F 28.2 °F 66% 30.15 in 10.0 mi WNW 17.3 mph 23.0 mph N/A   Mostly Cloudy
11:14 AM 39.2 °F 30.5 °F 28.4 °F 65% 30.15 in 10.0 mi WNW 16.1 mph 21.9 mph N/A   Mostly Cloudy
11:34 AM 39.2 °F 30.2 °F 28.0 °F 64% 30.14 in 10.0 mi WNW 17.3 mph 25.3 mph N/A   Mostly Cloudy
12:14 PM 41.4 °F 33.0 °F 27.5 °F 58% 30.14 in 10.0 mi WNW 17.3 mph 26.5 mph N/A   Scattered Clouds
12:34 PM 41.9 °F 33.1 °F 28.2 °F 58% 30.14 in 10.0 mi WNW 19.6 mph 25.3 mph N/A   Scattered Clouds
12:54 PM 42.3 °F 34.4 °F 28.2 °F 58% 30.13 in 10.0 mi WNW 16.1 mph 25.3 mph N/A   Scattered Clouds
1:14 PM 41.9 °F 33.1 °F 27.3 °F 56% 30.14 in 10.0 mi WNW 19.6 mph 27.6 mph N/A   Scattered Clouds
1:34 PM 41.9 °F 32.8 °F 27.3 °F 56% 30.14 in 10.0 mi WNW 20.7 mph 27.6 mph N/A   Mostly Cloudy
1:54 PM 43.0 °F 36.0 °F 27.7 °F 55% 30.13 in 10.0 mi WNW 13.8 mph 25.3 mph N/A   Overcast
2:14 PM 42.3 °F 32.8 °F 27.0 °F 55% 30.13 in 10.0 mi WNW 23.0 mph 29.9 mph N/A   Overcast
2:34 PM 43.3 °F 34.2 °F 27.3 °F 53% 30.13 in 10.0 mi West 23.0 mph 27.6 mph N/A   Overcast
2:53 PM 41.9 °F 33.1 °F 27.0 °F 55% 30.14 in 10.0 mi WNW 19.6 mph 28.8 mph N/A   Overcast
3:14 PM 41.7 °F 32.9 °F 26.6 °F 55% 30.14 in 10.0 mi WNW 19.6 mph 32.2 mph N/A   Overcast
3:34 PM 41.4 °F 32.4 °F 26.8 °F 56% 30.13 in 10.0 mi WNW 19.6 mph 27.6 mph N/A   Overcast
3:54 PM 41.0 °F 31.4 °F 26.8 °F 57% 30.14 in 10.0 mi WNW 21.9 mph 26.5 mph N/A   Overcast
4:14 PM 40.6 °F 31.4 °F 27.3 °F 59% 30.14 in 10.0 mi WNW 19.6 mph 29.9 mph N/A   Overcast
4:34 PM 40.5 °F 31.2 °F 27.3 °F 59% 30.14 in 10.0 mi WNW 19.6 mph 27.6 mph N/A   Overcast
4:54 PM 40.3 °F 30.4 °F 26.8 °F 59% 30.14 in 10.0 mi WNW 21.9 mph 25.3 mph N/A   Overcast
5:14 PM 40.1 °F 32.4 °F 26.8 °F 59% 30.14 in 10.0 mi WNW 13.8 mph 25.3 mph N/A   Overcast
5:34 PM 40.1 °F 31.3 °F 27.0 °F 59% 30.14 in 10.0 mi West 17.3 mph 26.5 mph N/A   Overcast
5:54 PM 40.1 °F 30.7 °F 26.6 °F 59% 30.14 in 10.0 mi WNW 19.6 mph 24.2 mph N/A   Overcast
6:14 PM 40.1 °F 30.7 °F 27.1 °F 60% 30.14 in 10.0 mi WNW 19.6 mph 24.2 mph N/A   Overcast
6:34 PM 39.6 °F 31.7 °F 27.5 °F 62% 30.14 in 10.0 mi WNW 13.8 mph 19.6 mph N/A   Overcast
6:54 PM 39.6 °F 32.1 °F 27.5 °F 62% 30.14 in 10.0 mi WNW 12.7 mph 24.2 mph N/A   Overcast
7:14 PM 39.6 °F 31.0 °F 27.5 °F 62% 30.15 in 10.0 mi WNW 16.1 mph 23.0 mph N/A   Overcast
7:34 PM 39.4 °F 31.8 °F 27.9 °F 63% 30.15 in 10.0 mi WNW 12.7 mph 20.7 mph N/A   Overcast
7:54 PM 39.4 °F 31.4 °F 28.0 °F 64% 30.16 in 10.0 mi WNW 13.8 mph 21.9 mph N/A   Overcast
8:14 PM 39.2 °F 31.6 °F 28.0 °F 64% 30.16 in 10.0 mi NW 12.7 mph 25.3 mph N/A   Overcast
8:34 PM 39.0 °F 31.4 °F 27.9 °F 64% 30.16 in 10.0 mi WNW 12.7 mph 23.0 mph N/A   Overcast
8:54 PM 38.3 °F 30.5 °F 28.4 °F 68% 30.17 in 10.0 mi NW 12.7 mph 20.7 mph N/A   Mostly Cloudy
9:14 PM 37.9 °F 29.2 °F 28.4 °F 69% 30.17 in 10.0 mi WNW 15.0 mph 20.7 mph N/A   Overcast
9:34 PM 37.9 °F 30.0 °F 28.9 °F 70% 30.17 in 10.0 mi WNW 12.7 mph - N/A   Overcast
9:54 PM 37.6 °F 28.1 °F 27.9 °F 68% 30.17 in 10.0 mi WNW 17.3 mph 23.0 mph N/A   Overcast
10:14 PM 37.0 °F 28.5 °F 27.5 °F 68% 30.17 in 10.0 mi NW 13.8 mph 21.9 mph N/A   Mostly Cloudy
10:34 PM 36.5 °F 27.0 °F 27.5 °F 70% 30.17 in 10.0 mi WNW 16.1 mph 21.9 mph N/A   Scattered Clouds
10:54 PM 36.0 °F 29.0 °F 27.7 °F 72% 30.18 in 10.0 mi NW 9.2 mph 17.3 mph N/A   Scattered Clouds
11:34 PM 36.1 °F 26.2 °F 27.3 °F 70% 30.17 in 10.0 mi NW 17.3 mph 21.9 mph N/A   Overcast
11:54 PM 35.8 °F 26.5 °F 27.5 °F 72% 30.17 in 10.0 mi NW 15.0 mph 21.9 mph N/A   Overcast